Wind_Speed
15 15 15 14 14 14 14 15 14 14 15 15 14 15 16 16 16 16 16 17 17 17 17 17 17 17 17 17 17 17 16 17 17 18 18 19 20 20 20 21 21 22 22
16 16 16 15 15 16 16 16 15 16 16 16 16 16 17 17 17 16 16 16 16 16 17 17 17 17 18 17 18 18 18 18 18 18 18 19 20 21 21 22 22 23 23
17 17 17 16 16 17 16 17 17 17 17 16 17 17 17 18 17 17 16 16 16 17 17 17 18 18 18 18 18 18 19 19 18 18 19 20 20 21 21 22 23 23 23
19 18 17 17 17 18 18 18 17 17 17 17 16 17 17 18 18 17 17 16 17 17 17 18 18 18 18 18 19 19 19 19 19 19 20 20 21 21 21 22 22 23 23
20 19 18 18 18 18 18 18 18 18 17 17 17 18 18 18 18 18 17 17 17 17 17 17 17 18 18 19 19 19 19 20 20 20 20 20 20 21 21 22 22 23 24
20 19 19 19 19 19 18 18 18 18 18 18 18 18 19 19 18 18 19 18 17 17 17 18 18 19 19 19 19 20 20 20 20 20 20 20 20 20 21 22 22 22 23
22 21 20 19 20 20 19 19 19 19 19 19 20 19 19 19 19 19 19 19 18 18 18 19 19 20 20 20 20 20 21 20 20 21 21 21 21 21 21 22 23 23 23
22 22 21 21 20 21 21 21 20 20 20 20 20 21 20 20 20 20 20 20 19 19 20 20 20 20 21 21 21 21 21 21 22 22 22 22 22 22 22 22 23 23 23
23 22 22 22 22 22 22 22 22 21 21 21 22 21 21 21 21 21 21 20 20 20 20 21 21 21 21 21 21 22 22 23 23 23 23 24 24 23 23 23 23 22 23
23 23 23 23 24 23 23 22 23 23 23 23 22 22 22 21 21 21 21 20 20 21 21 22 22 22 22 22 22 22 22 23 24 24 23 23 23 23 23 23 23 22 22
24 24 24 24 24 23 23 23 23 23 23 22 22 22 22 22 22 21 21 21 21 21 22 22 23 23 23 23 23 23 23 23 23 23 24 23 24 23 23 23 23 23 22
24 24 25 25 24 24 24 23 24 24 23 23 23 23 22 22 22 22 22 22 22 22 23 24 24 24 24 24 24 24 24 23 23 22 23 23 23 23 23 23 23 23 23
24 25 25 25 24 24 24 24 25 24 24 24 24 24 23 23 23 23 24 24 24 24 24 24 24 24 24 24 24 24 24 23 22 22 23 22 22 22 23 23 23 23 24
25 25 25 25 25 26 25 25 25 25 25 25 24 24 24 24 24 24 25 25 25 24 25 24 24 24 24 24 24 23 23 23 22 22 22 22 21 21 22 23 23 23 24
26 26 27 26 26 26 26 26 26 26 26 26 25 25 25 25 26 26 26 25 25 25 24 24 24 25 24 24 24 24 24 24 23 22 22 22 21 21 22 22 22 23 23
25 25 26 26 26 26 26 27 27 27 26 26 26 26 26 26 26 26 26 25 24 24 24 24 24 24 24 24 24 24 24 23 22 22 21 22 22 22 21 21 21 21 21
25 25 25 25 26 26 27 27 28 27 27 27 27 27 27 27 27 26 26 25 25 25 25 25 25 25 25 25 25 24 24 23 23 22 22 22 22 22 22 22 22 22 22
25 25 25 25 26 26 26 26 27 27 27 27 27 28 28 28 28 27 27 27 26 26 26 26 26 26 26 25 25 24 24 24 23 22 22 22 22 22 22 22 22 22 22
26 26 26 26 26 27 27 27 27 27 27 28 28 28 28 28 28 28 27 27 27 27 27 27 26 26 26 25 25 25 25 23 22 22 23 22 22 22 23 23 22 22 22
26 26 26 26 26 27 27 27 27 27 27 28 28 28 28 28 28 27 27 27 28 27 27 27 27 27 26 25 25 24 24 23 22 23 23 23 23 23 24 23 23 23 22
25 26 26 26 26 27 27 27 27 27 27 27 27 28 28 27 27 27 27 27 27 27 27 27 27 26 25 25 24 24 23 24 24 24 24 24 24 24 24 24 23 23 22
25 25 26 27 26 27 28 27 26 26 27 27 26 27 27 27 27 27 27 26 26 26 26 26 25 25 24 24 24 24 25 25 25 25 25 25 25 25 25 24 24 23 23
25 25 26 26 27 27 27 28 28 27 27 27 27 27 27 27 27 27 26 26 26 26 26 25 25 24 24 25 25 26 26 26 26 27 27 26 26 26 25 25 24 24 24
24 25 25 25 26 26 26 27 27 27 27 27 27 27 27 27 26 26 26 26 26 25 25 25 25 26 25 25 25 26 26 26 27 27 27 27 26 26 26 25 25 25 25
23 23 24 24 25 26 26 26 26 27 27 27 27 26 26 26 26 25 25 25 25 25 25 25 25 25 26 26 26 26 27 28 28 27 27 27 26 26 25 25 25 25 24
22 23 23 24 24 24 25 24 24 25 25 26 26 25 24 24 24 24 24 24 24 24 25 25 25 26 26 27 27 27 27 27 27 26 26 26 26 26 25 25 25 25 24
Wind_Direction
288 288 291 290 291 294 294 295 295 297 298 298 301 302 304 305 302 299 300 301 298 297 297 296 296 296 295 294 292 291 288 286 285 280 277 274 273 273 272 271 269 269 271
285 285 288 290 290 291 292 294 295 296 297 296 298 302 304 305 302 301 301 302 303 300 298 298 298 297 295 293 291 290 289 287 285 282 279 276 274 273 272 272 271 271 272
284 283 285 287 289 292 294 297 295 296 297 296 299 302 303 305 304 301 301 302 302 300 297 297 297 297 295 294 293 291 288 286 284 282 281 279 276 275 273 273 273 272 272
284 284 285 286 289 292 294 296 296 296 297 297 299 302 304 305 304 302 300 299 299 298 298 298 297 298 298 297 295 292 290 288 285 283 284 283 279 278 276 274 274 273 272
280 284 284 286 289 291 294 294 294 296 298 297 299 301 301 302 301 302 302 301 300 300 300 300 299 298 296 297 298 296 293 291 289 287 287 287 284 280 278 277 275 275 273
280 283 283 284 287 288 292 292 292 296 297 295 296 298 298 300 299 300 302 302 302 302 302 301 301 300 298 298 297 295 293 291 289 288 289 288 286 283 282 281 279 277 275
280 281 283 283 285 287 290 290 292 294 295 292 293 295 297 298 299 300 301 303 301 299 300 300 300 300 300 298 296 296 295 292 289 288 288 287 286 284 283 282 281 280 277
280 280 281 282 283 285 288 288 290 292 293 293 293 295 294 294 295 298 299 301 299 297 298 298 299 298 299 299 297 296 296 293 291 290 288 288 287 285 285 284 283 282 281
280 280 280 280 282 284 285 284 286 288 289 291 293 292 291 291 293 296 298 299 300 298 298 299 299 299 300 300 298 298 297 294 292 291 290 288 288 286 286 285 284 284 284
277 278 280 281 283 282 282 282 284 286 287 290 290 289 288 289 291 293 296 297 297 297 297 298 299 300 299 298 297 297 298 295 292 290 290 290 289 288 288 286 286 286 285
275 277 279 280 281 280 280 281 283 285 286 287 288 288 287 287 288 290 293 296 295 296 298 297 298 298 298 298 299 298 298 296 294 291 289 288 288 287 288 287 285 285 284
273 274 276 277 278 278 278 278 280 283 284 286 287 287 287 286 288 288 291 294 293 294 296 297 298 299 299 298 299 299 298 297 295 293 291 290 288 286 285 284 283 283 282
272 273 274 273 274 276 277 277 279 281 283 285 285 286 286 285 287 289 291 293 292 292 294 295 295 296 298 299 299 298 297 297 295 294 293 291 288 285 284 283 283 283 283
270 272 272 272 273 274 277 278 279 280 282 284 285 285 286 286 288 289 290 291 292 291 293 295 295 296 298 299 299 298 297 296 294 293 292 291 290 288 287 286 285 285 285
269 271 272 274 274 275 277 278 279 280 281 282 284 284 285 286 287 288 289 289 291 290 291 293 294 296 296 296 297 296 295 295 293 291 290 291 289 288 290 289 287 286 286
270 271 273 275 276 276 277 277 278 279 280 282 284 284 285 286 286 287 287 288 289 290 290 291 293 293 294 294 295 294 294 295 292 289 288 290 290 291 290 290 290 288 286
273 273 274 275 276 278 279 279 279 278 279 281 281 283 284 285 285 284 284 286 288 288 289 289 290 292 293 293 293 292 292 293 291 287 287 289 290 291 290 291 291 289 287
273 273 275 275 276 277 279 280 279 278 278 279 280 280 281 282 282 281 282 284 286 286 287 288 288 289 291 291 292 291 290 290 288 286 287 289 291 290 291 291 289 288 286
274 274 275 277 277 278 279 280 280 279 279 279 279 280 280 280 281 280 281 282 284 285 287 287 287 288 289 289 288 289 289 287 286 286 288 288 290 291 291 290 288 286 285
273 274 276 277 278 278 278 280 280 279 279 279 279 280 280 280 279 279 280 282 283 284 286 286 286 287 287 287 287 287 287 286 285 287 289 288 288 289 290 289 287 286 284
273 275 277 277 278 278 278 279 279 279 279 280 280 280 280 279 279 279 280 281 282 284 285 285 286 286 285 284 284 284 284 286 286 286 287 288 289 289 289 288 286 284 283
276 275 277 277 278 279 278 277 278 278 278 279 280 280 280 279 279 281 281 281 281 282 284 286 285 283 283 283 285 285 285 285 287 288 287 286 287 288 288 287 285 282 281
278 278 278 279 279 279 279 278 278 278 278 277 279 279 280 279 279 279 279 280 281 281 283 284 284 284 285 286 286 285 285 286 286 287 288 286 286 287 287 286 285 283 282
279 279 280 280 280 279 281 281 280 279 278 278 278 277 277 276 276 277 277 279 281 281 283 284 285 286 286 285 286 285 285 285 284 285 285 286 286 285 284 284 284 283 282
280 280 280 280 280 280 281 282 283 281 280 279 278 277 275 274 274 275 278 280 281 281 282 283 283 284 285 286 286 286 286 285 284 285 284 283 285 286 284 283 282 283 281
281 281 281 281 282 282 282 282 283 282 281 278 276 275 274 273 273 275 277 279 281 282 282 282 282 283 284 284 285 285 286 285 284 284 285 284 284 285 284 283 282 282 280
Height
5851 5850 5848 5847 5847 5846 5845 5844 5842 5841 5840 5838 5836 5835 5833 5831 5829 5828 5826 5824 5822 5820 5818 5816 5815 5813 5811 5809 5808 5806 5805 5804 5802 5801 5800 5799 5798 5798 5797 5796 5796 5795 5795
5846 5845 5844 5843 5842 5841 5840 5839 5838 5837 5835 5834 5832 5830 5828 5826 5824 5822 5821 5819 5817 5815 5813 5812 5810 5808 5806 5804 5803 5801 5800 5798 5797 5796 5795 5794 5793 5792 5791 5790 5789 5789 5788
5841 5840 5840 5839 5838 5836 5835 5834 5833 5832 5831 5829 5828 5826 5824 5821 5819 5817 5816 5814 5812 5810 5809 5807 5805 5803 5801 5799 5797 5796 5794 5793 5791 5790 5789 5788 5787 5786 5785 5784 5783 5782 5782
5836 5835 5835 5834 5833 5832 5831 5829 5828 5827 5826 5824 5823 5821 5819 5817 5814 5812 5811 5809 5807 5805 5803 5801 5799 5797 5796 5794 5792 5790 5789 5787 5786 5785 5784 5782 5781 5780 5779 5778 5777 5776 5775
5830 5830 5829 5829 5828 5827 5826 5824 5823 5822 5820 5819 5818 5816 5814 5812 5810 5808 5806 5804 5802 5800 5798 5796 5794 5792 5791 5789 5787 5785 5783 5782 5780 5779 5778 5776 5775 5773 5772 5771 5770 5769 5768
5824 5824 5824 5823 5822 5821 5820 5819 5818 5817 5815 5814 5812 5811 5809 5807 5804 5802 5801 5799 5797 5795 5793 5791 5789 5787 5785 5783 5782 5780 5778 5776 5775 5774 5772 5771 5769 5768 5766 5765 5763 5763 5762
5818 5818 5818 5817 5817 5816 5815 5813 5812 5811 5809 5808 5807 5805 5803 5801 5799 5797 5795 5793 5792 5790 5788 5786 5784 5782 5780 5778 5776 5774 5772 5770 5769 5768 5766 5765 5763 5762 5760 5759 5757 5755 5754
5813 5812 5811 5811 5811 5810 5809 5807 5806 5805 5803 5802 5801 5799 5798 5796 5794 5792 5790 5788 5786 5784 5783 5781 5778 5776 5774 5772 5770 5768 5766 5764 5762 5761 5760 5758 5757 5755 5754 5752 5750 5749 5747
5806 5805 5805 5804 5804 5803 5802 5801 5800 5799 5797 5796 5794 5793 5791 5790 5788 5786 5784 5782 5780 5779 5777 5775 5773 5771 5769 5767 5765 5763 5760 5758 5755 5754 5752 5751 5749 5748 5747 5745 5744 5742 5741
5799 5798 5798 5798 5797 5796 5795 5794 5793 5792 5791 5789 5788 5786 5785 5783 5781 5780 5778 5777 5775 5773 5771 5769 5767 5765 5763 5760 5758 5756 5754 5751 5749 5747 5745 5744 5742 5741 5739 5738 5736 5735 5734
5792 5791 5791 5790 5790 5789 5788 5787 5786 5785 5784 5782 5781 5780 5778 5777 5775 5774 5772 5771 5769 5767 5765 5763 5761 5759 5756 5754 5752 5749 5747 5744 5742 5740 5738 5736 5735 5733 5732 5730 5729 5727 5726
5784 5784 5784 5783 5782 5782 5781 5780 5779 5778 5777 5775 5774 5773 5771 5770 5769 5767 5765 5764 5762 5761 5759 5757 5754 5752 5750 5747 5745 5742 5740 5737 5735 5733 5731 5729 5727 5725 5724 5722 5721 5720 5718
5777 5777 5776 5776 5775 5774 5773 5772 5771 5770 5770 5768 5767 5766 5765 5763 5762 5760 5759 5757 5755 5754 5752 5750 5747 5745 5743 5740 5738 5736 5733 5731 5728 5726 5724 5722 5720 5718 5716 5715 5713 5712 5711
5770 5770 5769 5768 5767 5766 5765 5765 5764 5763 5762 5761 5760 5758 5757 5756 5755 5753 5751 5750 5748 5746 5744 5742 5740 5738 5736 5734 5731 5729 5726 5724 5722 5720 5717 5715 5713 5711 5709 5708 5706 5705 5703
5762 5762 5761 5760 5759 5759 5758 5757 5756 5755 5754 5753 5752 5751 5750 5748 5747 5746 5744 5742 5740 5739 5737 5735 5733 5731 5729 5727 5725 5722 5720 5718 5715 5713 5711 5709 5707 5705 5703 5700 5699 5697 5696
5754 5753 5753 5752 5751 5751 5750 5749 5748 5747 5746 5744 5743 5742 5741 5741 5739 5738 5736 5735 5733 5731 5730 5728 5726 5724 5722 5720 5718 5716 5713 5711 5709 5707 5705 5703 5701 5699 5697 5694 5693 5691 5689
5745 5745 5744 5744 5743 5742 5742 5741 5739 5738 5737 5736 5735 5734 5733 5732 5731 5729 5728 5727 5725 5724 5722 5720 5719 5717 5715 5713 5711 5709 5707 5705 5702 5700 5699 5697 5694 5692 5690 5688 5686 5684 5683
5737 5736 5736 5735 5735 5734 5733 5732 5731 5730 5728 5727 5726 5725 5724 5723 5722 5721 5720 5719 5717 5716 5714 5713 5711 5709 5707 5705 5703 5701 5700 5698 5696 5694 5692 5690 5688 5686 5684 5682 5680 5678 5676
5728 5728 5727 5727 5726 5725 5724 5723 5722 5721 5719 5718 5717 5716 5715 5714 5713 5712 5711 5710 5709 5707 5706 5704 5703 5701 5699 5697 5696 5694 5692 5690 5689 5687 5685 5684 5682 5679 5677 5675 5673 5672 5670
5719 5719 5718 5718 5717 5716 5715 5714 5713 5711 5710 5709 5708 5707 5706 5705 5704 5703 5702 5701 5700 5698 5697 5696 5694 5693 5691 5689 5688 5686 5685 5683 5682 5680 5678 5676 5674 5672 5670 5668 5667 5665 5663
5710 5710 5709 5709 5708 5707 5706 5705 5704 5702 5702 5700 5699 5698 5697 5696 5695 5694 5693 5692 5691 5689 5688 5687 5685 5684 5682 5681 5680 5678 5677 5676 5674 5672 5671 5669 5667 5665 5663 5661 5659 5657 5656
5701 5701 5700 5700 5699 5698 5697 5696 5694 5693 5692 5691 5690 5689 5688 5687 5686 5685 5684 5684 5682 5681 5679 5678 5677 5676 5674 5673 5672 5671 5669 5668 5666 5664 5663 5661 5659 5657 5655 5653 5652 5650 5649
5692 5691 5691 5691 5690 5689 5688 5687 5685 5684 5683 5682 5681 5680 5679 5678 5677 5676 5676 5674 5673 5672 5671 5669 5668 5667 5666 5665 5664 5662 5661 5659 5658 5656 5655 5653 5651 5649 5647 5645 5644 5642 5641
5683 5682 5682 5681 5681 5680 5679 5678 5676 5675 5674 5673 5672 5671 5670 5669 5669 5668 5667 5666 5665 5663 5662 5661 5660 5659 5658 5656 5655 5654 5652 5651 5649 5647 5646 5644 5642 5640 5638 5637 5635 5634 5633
5675 5674 5673 5673 5672 5671 5670 5669 5667 5666 5665 5664 5663 5662 5661 5660 5660 5659 5659 5658 5656 5655 5654 5653 5651 5650 5649 5648 5646 5645 5643 5642 5640 5639 5637 5635 5633 5632 5630 5628 5627 5625 5624
5667 5666 5665 5664 5663 5662 5661 5660 5659 5657 5656 5654 5654 5653 5652 5652 5651 5651 5650 5649 5648 5647 5646 5644 5643 5642 5640 5639 5637 5636 5634 5632 5631 5629 5628 5626 5624 5623 5621 5620 5618 5617 5616